Location: East Arcadia
(34.1056°N, 118.0176°W)
Time: 08:46:13
(UTC+00:00)

DELTA 2 R/B (1) - Pass Details

Date: 05 December 2023
Orbit: 788 x 802 km, 39.6° (Epoch: 24 February)

Event Time Altitude Azimuth Distance (km) Brightness Sun altitude
Rises 04:01:01 0° 248° (WSW) 3,285 7.6 -40.4°
Reaches altitude 10° 04:03:30 10° 249° (WSW) 2,354 6.6 -40.9°
Enters shadow 04:04:44 17° 250° (WSW) 1,901 6.0 -41.2°
